Flag for Poland Weather past 2 weeks in Płock, Poland

Now
56 °F

Overcast.


Feels Like: 55 °F
Forecast: 51 / 69 °F
Wind: 5 mph from West

Location: Plock

Current Time: Aug 27, 2014 at 11:03:47 PM

Latest Report: Aug 27, 2014 at 10:00 PM


Visibility: 31 mi

Pressure: 29.91 "Hg

Humidity: 84%

Dew point: 51 °F

Location of PłockLocation

Historic Weather in Płock — Graph

°F

Płock temperature yesterday

Maximum temperature yesterday: 59 °F (at 6:00 PM)
Minimum temperature yesterday: 49 °F (at 11:00 PM)
Average temperature yesterday: 53 °F

Past Weeks' High & Low Weather Summary

 TemperatureHumidityPressure
High74 °F (Aug 13, 1:00 PM)100% (Aug 27, 7:00 AM)30.04 "Hg (Aug 27, 7:00 AM)
Low44 °F (Aug 22, 6:00 AM)40% (Aug 22, 5:00 PM)29.56 "Hg (Aug 14, 4:00 AM)
Average59 °F76%29.87 "Hg
* Reported Aug 12 9:00 PM — Aug 27 9:00 PM, Płock, Weather by CustomWeather, © 2014

Note: Actual official high and low records may vary slightly from our data, if they occured in-between our weather recording intervals... More about our weather records

Advertising

Płock weather history for previous 24 hours

 ConditionsComfort  
Time TempWeatherWind HumidityBarometerVisibility
9:00 PM
Aug 27
56 °FOvercast.2 mph90%29.91 "Hg16 mi
7:00 PM55 °FOvercast.1 mph91%29.89 "Hg12 mi
6:00 PM57 °FOvercast.5 mph82%29.88 "Hg31 mi
5:00 PM57 °FRain. Overcast.2 mph85%29.86 "Hg4 mi
4:00 PM64 °FOvercast.6 mph61%29.83 "Hg31 mi
3:00 PM65 °FPartly sunny.5 mph60%29.83 "Hg25 mi
2:00 PM63 °FOvercast.5 mph66%29.83 "Hg25 mi
1:00 PM59 °FOvercast.5 mph78%29.84 "Hg22 mi
12:00 PM63 °FOvercast.5 mph61%29.82 "Hg25 mi
11:00 AM62 °FScattered clouds.5 mph65%29.82 "Hg19 mi
10:00 AM59 °FScattered clouds.5 mph75%29.81 "Hg19 mi
9:00 AM56 °FScattered clouds.5 mph85%29.81 "Hg9 mi
8:00 AM51 °FFog.2 mph98%29.81 "Hg4 mi
7:00 AM48 °FFog.2 mph100%29.81 "Hg1 mi
6:00 AM46 °FFog.1 mph98%29.80 "Hg0 mi
5:00 AM46 °FFog.1 mph97%29.78 "Hg1 mi
4:00 AM47 °FFog.2 mph97%29.78 "Hg1 mi
3:00 AM47 °FFog.1 mph93%29.78 "Hg2 mi
2:00 AM49 °FFog.1 mph92%29.78 "Hg5 mi
1:00 AM49 °FClear.1 mph90%29.77 "Hg7 mi
12:00 AM49 °FClear.1 mph93%29.77 "Hg6 mi
11:00 PM
Aug 26
49 °FClear.1 mph89%29.76 "Hg9 mi
Weather by CustomWeather, © 2014

See weather overviewHow to use our weather pages